| time (UTC) | temp F | wind direction | speed MPH | gust MPH | rain 1hr in | rain 24hr in | rain mn in | humidity % | barometer mb |
| 20260506113025 | 74 | 26 | 0.0 | 2.0 | 0.00 | 0.00 | 0.00 | 90 | 1009.9 |
| 20260506111528 | 74 | 37 | 0.0 | 2.0 | 0.00 | 0.00 | 0.00 | 90 | 1009.9 |
| 20260506110027 | 74 | 78 | 0.0 | 2.0 | 0.00 | 0.00 | 0.00 | 89 | 1009.7 |
| 20260506104515 | 74 | 78 | 1.0 | 6.0 | 0.00 | 0.00 | 0.00 | 89 | 1009.5 |
| 20260506103022 | 74 | 103 | 2.0 | 7.0 | 0.00 | 0.00 | 0.00 | 89 | 1009.3 |
| 20260506101503 | 74 | 87 | 3.0 | 6.0 | 0.00 | 0.00 | 0.00 | 89 | 1009.1 |
| 20260506100011 | 74 | 65 | 3.0 | 7.0 | 0.00 | 0.00 | 0.00 | 89 | 1009.1 |
| 20260506094513 | 74 | 123 | 2.0 | 6.0 | 0.00 | 0.00 | 0.00 | 89 | 1009.0 |
| 20260506093033 | 74 | 96 | 2.0 | 8.0 | 0.00 | 0.00 | 0.00 | 89 | 1008.7 |
| 20260506091505 | 74 | 109 | 3.0 | 9.0 | 0.00 | 0.00 | 0.00 | 88 | 1008.7 |
| 20260506090009 | 74 | 127 | 4.0 | 10.0 | 0.00 | 0.00 | 0.00 | 88 | 1008.5 |
| 20260506084516 | 74 | 109 | 3.0 | 6.0 | 0.00 | 0.00 | 0.00 | 89 | 1008.6 |
| 20260506083019 | 74 | 95 | 3.0 | 8.0 | 0.00 | 0.00 | 0.00 | 89 | 1008.6 |
| 20260506081524 | 74 | 21 | 4.0 | 11.0 | 0.00 | 0.00 | 0.00 | 89 | 1008.6 |
| 20260506073016 | 75 | 72 | 4.0 | 9.0 | 0.00 | 0.00 | 0.00 | 88 | 1009.0 |
| 20260506071519 | 75 | 110 | 3.0 | 13.0 | 0.00 | 0.00 | 0.00 | 88 | 1009.2 |
| 20260506061518 | 75 | 103 | 4.0 | 19.0 | 0.00 | 0.00 | 0.00 | 87 | 1009.2 |
| 20260506044527 | 76 | 98 | 5.0 | 14.0 | 0.00 | 0.00 | 0.00 | 86 | 1009.3 |
| 20260506043008 | 76 | 88 | 2.0 | 7.0 | 0.00 | 0.00 | 0.00 | 86 | 1009.4 |
| 20260506041514 | 76 | 55 | 3.0 | 9.0 | 0.00 | 0.00 | 0.00 | 86 | 1009.1 |
| 20260506040021 | 76 | 80 | 3.0 | 8.0 | 0.00 | 0.00 | 0.00 | 86 | 1009.0 |
| 20260506034524 | 76 | 82 | 2.0 | 8.0 | 0.00 | 0.00 | 0.00 | 85 | 1008.8 |
| 20260506033025 | 76 | 65 | 1.0 | 6.0 | 0.00 | 0.00 | 0.00 | 85 | 1008.7 |
| 20260506031514 | 76 | 54 | 2.0 | 8.0 | 0.00 | 0.00 | 0.00 | 85 | 1008.5 |
| 20260506030018 | 76 | 88 | 1.0 | 6.0 | 0.00 | 0.00 | 0.00 | 84 | 1008.2 |
| 20260506024525 | 76 | 11 | 1.0 | 7.0 | 0.00 | 0.00 | 0.00 | 83 | 1008.2 |
| 20260506023024 | 77 | 126 | 2.0 | 6.0 | 0.00 | 0.00 | 0.00 | 82 | 1007.8 |
| 20260506021526 | 77 | 92 | 2.0 | 6.0 | 0.00 | 0.00 | 0.00 | 82 | 1007.6 |
| 20260506020030 | 77 | 43 | 1.0 | 4.0 | 0.00 | 0.00 | 0.00 | 81 | 1007.1 |
| 20260506014520 | 77 | 63 | 1.0 | 4.0 | 0.00 | 0.00 | 0.00 | 81 | 1007.1 |
| 20260506013024 | 78 | 49 | 1.0 | 3.0 | 0.00 | 0.00 | 0.00 | 80 | 1007.0 |
| 20260506011508 | 78 | 63 | 1.0 | 3.0 | 0.00 | 0.00 | 0.00 | 80 | 1007.1 |
| 20260506010017 | 79 | 65 | 0.0 | 2.0 | 0.00 | 0.00 | 0.00 | 78 | 1007.2 |
| 20260506004524 | 80 | 81 | 0.0 | 2.0 | 0.00 | 0.00 | 0.00 | 76 | 1007.1 |
| 20260506003004 | 81 | 98 | 1.0 | 4.0 | 0.00 | 0.00 | 0.00 | 74 | 1007.0 |
| 20260506001504 | 82 | 92 | 0.0 | 3.0 | 0.00 | 0.00 | 0.00 | 73 | 1007.0 |
| 20260506000012 | 82 | 80 | 2.0 | 7.0 | 0.00 | 0.00 | 0.00 | 72 | 1006.8 |
| 20260505234516 | 82 | 89 | 2.0 | 9.0 | 0.00 | 0.00 | 0.00 | 70 | 1006.7 |
| 20260505233004 | 82 | 104 | 4.0 | 9.0 | 0.00 | 0.00 | 0.00 | 71 | 1006.6 |
| 20260505231507 | 82 | 57 | 3.0 | 12.0 | 0.00 | 0.00 | 0.00 | 70 | 1006.6 |
| 20260505230016 | 83 | 119 | 3.0 | 10.0 | 0.00 | 0.00 | 0.00 | 69 | 1006.4 |
| 20260505224513 | 83 | 44 | 5.0 | 14.0 | 0.00 | 0.00 | 0.00 | 68 | 1006.6 |
| 20260505223017 | 83 | 87 | 4.0 | 12.0 | 0.00 | 0.00 | 0.00 | 68 | 1006.5 |
| 20260505221504 | 84 | 112 | 4.0 | 10.0 | 0.00 | 0.00 | 0.00 | 68 | 1006.4 |
| 20260505220006 | 84 | 80 | 4.0 | 11.0 | 0.00 | 0.00 | 0.00 | 67 | 1006.5 |
| 20260505214511 | 84 | 140 | 5.0 | 13.0 | 0.00 | 0.00 | 0.00 | 67 | 1006.6 |
| 20260505213019 | 85 | 82 | 6.0 | 15.0 | 0.00 | 0.00 | 0.00 | 65 | 1007.0 |
| 20260505211530 | 84 | 103 | 4.0 | 13.0 | 0.00 | 0.00 | 0.00 | 65 | 1007.0 |
| 20260505210003 | 84 | 180 | 2.0 | 14.0 | 0.00 | 0.00 | 0.00 | 65 | 1007.3 |
| 20260505204509 | 84 | 138 | 5.0 | 14.0 | 0.00 | 0.00 | 0.00 | 66 | 1007.5 |
| 20260505203016 | 84 | 136 | 3.0 | 12.0 | 0.00 | 0.00 | 0.00 | 66 | 1007.8 |
| 20260505201521 | 83 | 133 | 6.0 | 14.0 | 0.00 | 0.00 | 0.00 | 66 | 1008.0 |
| 20260505200024 | 83 | 105 | 4.0 | 12.0 | 0.00 | 0.00 | 0.00 | 67 | 1008.0 |
| 20260505194510 | 82 | 106 | 7.0 | 12.0 | 0.00 | 0.00 | 0.00 | 69 | 1008.2 |
| 20260505193012 | 83 | 90 | 6.0 | 12.0 | 0.00 | 0.00 | 0.00 | 67 | 1008.2 |
| 20260505191519 | 82 | 111 | 4.0 | 13.0 | 0.00 | 0.00 | 0.00 | 69 | 1008.5 |
| 20260505190024 | 81 | 88 | 5.0 | 11.0 | 0.00 | 0.00 | 0.00 | 72 | 1008.6 |
| 20260505184530 | 81 | 53 | 3.0 | 14.0 | 0.00 | 0.00 | 0.00 | 71 | 1008.8 |
| 20260505183013 | 80 | 115 | 5.0 | 13.0 | 0.00 | 0.00 | 0.00 | 73 | 1009.1 |
| 20260505181518 | 80 | 115 | 3.0 | 13.0 | 0.00 | 0.00 | 0.00 | 74 | 1009.3 |
| 20260505180021 | 78 | 94 | 4.0 | 11.0 | 0.00 | 0.00 | 0.00 | 76 | 1009.5 |
| 20260505174535 | 78 | 64 | 5.0 | 13.0 | 0.00 | 0.00 | 0.00 | 78 | 1009.6 |
| 20260505173009 | 76 | 41 | 2.0 | 11.0 | 0.00 | 0.00 | 0.00 | 80 | 1009.8 |
| 20260505171518 | 75 | 107 | 6.0 | 12.0 | 0.00 | 0.00 | 0.00 | 82 | 1009.8 |
| 20260505170019 | 74 | 121 | 6.0 | 12.0 | 0.00 | 0.00 | 0.00 | 82 | 1009.9 |
| 20260505164523 | 74 | 60 | 4.0 | 11.0 | 0.00 | 0.00 | 0.00 | 83 | 1009.8 |
| 20260505163025 | 74 | 115 | 3.0 | 9.0 | 0.00 | 0.00 | 0.00 | 84 | 1009.8 |
| 20260505161506 | 72 | 117 | 4.0 | 9.0 | 0.00 | 0.00 | 0.00 | 85 | 1009.9 |
| 20260505153014 | 71 | 69 | 2.0 | 11.0 | 0.00 | 0.00 | 0.00 | 87 | 1009.9 |
| 20260505151507 | 71 | 101 | 5.0 | 12.0 | 0.00 | 0.00 | 0.00 | 88 | 1009.8 |
| 20260505124511 | 70 | 91 | 5.0 | 15.0 | 0.00 | 0.00 | 0.00 | 89 | 1008.5 |
| 20260505123009 | 69 | 35 | 4.0 | 9.0 | 0.00 | 0.00 | 0.00 | 89 | 1008.3 |
| 20260505121504 | 69 | 180 | 4.0 | 14.0 | 0.00 | 0.00 | 0.00 | 89 | 1008.1 |
| 20260505120011 | 69 | 119 | 4.0 | 12.0 | 0.00 | 0.00 | 0.00 | 88 | 1008.1 |
| 20260505114516 | 69 | 136 | 6.0 | 13.0 | 0.00 | 0.00 | 0.00 | 88 | 1007.9 |